Location: *
(51.5000°N, 0.1100°W)
Time: 04:27:13
(UTC+00:00)

IDEFIX/ARIANE 42P - Pass Details

Date: 11 August 2024
Orbit: 782 x 799 km, 98.5° (Epoch: 08 September)

Event Time Altitude Azimuth Distance (km) Brightness Sun altitude
Rises 00:30:22 0° 26° (NNE) 3,284 7.0 -23.1°
Reaches altitude 10° 00:33:24 10° 44° (NE) 2,351 5.7 -23.1°
Maximum altitude 00:37:01 19° 89° (E) 1,810 4.5 -23.0°
Enters shadow 00:39:00 15° 117° (ESE) 1,988 4.5 -22.9°
